#timestamp,LO_Frequency,Hit,StdDev 
1582160415.7,286046999.6,N
1582160435.6,286047000.2,N
1582160455.4,286047002.9,N
1582160475.2,286047003.3,N
1582160495.1,286046999.8,N
1582160496.0,286046999.8,N
1582160515.8,286047003.0,N
1582160535.7,286046999.1,N
1582160555.5,286046997.0,N
1582160575.3,286046995.2,N
1582160595.2,286046999.1,N
1582160615.0,286047000.2,N
1582160615.9,286047000.2,N
1582160635.7,286046994.9,N
1582160655.6,286047000.8,N
1582160675.4,286046997.4,N
1582160695.3,286046998.7,N
1582160715.1,286046992.4,N
1582160716.0,286046992.4,N
1582160735.8,286046992.6,N
1582160755.7,286046997.3,N
1582160775.5,286046997.6,N
1582160795.4,286046994.3,N
1582160815.2,286046989.7,Y
1582160835.0,286046987.7,P
1582160835.9,286046987.7,N
1582160855.8,286046987.9,N
1582160875.6,286046993.5,N
1582160895.4,286046998.0,N
1582160915.3,286047000.5,N
1582160935.1,286046999.1,N
1582160955.9,286046998.5,N
1582160975.7,286046994.0,N
1582160995.5,286046997.0,N
1582161015.4,286047003.6,N
1582161035.2,286047004.6,N
1582161055.0,286047001.8,N
1582161055.9,286047001.8,N
1582161075.8,286047000.5,N
1582161095.6,286046997.4,N
1582161115.5,286047002.0,N
1582161135.3,286046999.3,N
1582161155.1,286046993.5,N
1582161175.9,286046991.7,N
1582161195.7,286046996.7,N
1582161215.5,286046997.0,N
1582161235.4,286046996.0,N
1582161255.2,286046998.6,N
1582161275.1,286046995.1,N
1582161276.0,286046995.1,N
1582161295.8,286046997.0,N
1582161315.6,286046993.0,N
1582161335.5,286046997.1,N
1582161355.3,286047000.0,N
1582161375.2,286046993.7,N
1582161395.9,286046998.6,N
1582161415.7,286047001.9,N
1582161435.6,286046998.7,N
1582161455.4,286047004.3,N
1582161475.2,286047000.4,N
1582161495.1,286047006.7,N
1582161496.0,286047006.7,N
1582161515.8,286047001.7,N
1582161535.7,286046997.6,N
1582161555.5,286047009.2,N
1582161575.3,286047003.6,N
1582161595.2,286047000.0,N
1582161615.0,286047003.8,N
1582161615.9,286047003.8,N
1582161635.7,286047003.7,N
1582161655.6,286047000.8,N
1582161675.4,286047005.6,N
1582161695.3,286046999.0,N
1582161715.1,286046998.8,N
1582161716.0,286046998.8,N
1582161735.8,286047001.1,N
1582161755.7,286046991.7,N
1582161775.5,286046992.1,N
1582161795.3,286046999.3,N
1582161815.2,286047007.0,N
1582161835.0,286047001.1,N
1582161835.9,286047001.1,N
1582161855.8,286046995.0,N
1582161875.6,286047001.7,N
1582161895.4,286047007.3,N
1582161915.3,286047005.0,N
1582161935.1,286047008.9,N
1582161955.9,286047011.7,N
1582161975.7,286047012.0,N
1582161995.5,286047009.8,N
1582162015.4,286047010.1,N
1582162035.2,286047002.8,N
1582162055.1,286046998.5,N
1582162056.0,286046998.5,N
1582162075.8,286046998.9,N
1582162095.6,286046997.4,N
1582162115.5,286046998.0,N
1582162135.3,286046999.0,N
1582162155.2,286047007.7,N
1582162175.9,286047003.0,N
1582162195.7,286047006.9,N
1582162215.6,286047005.6,N
1582162235.4,286047001.2,N
1582162255.2,286047004.8,N
1582162275.1,286047006.3,N
1582162276.0,286047006.3,N
1582162295.8,286047006.4,N
1582162315.7,286047002.4,N
1582162335.5,286046998.8,N
1582162355.3,286047004.6,N
1582162375.2,286047004.5,N
1582162395.9,286047007.1,N
1582162415.7,286047012.1,N
1582162435.6,286047005.8,N
1582162455.4,286047000.9,N
1582162475.3,286047003.6,N
1582162495.1,286047003.5,N
1582162496.0,286047003.5,N
1582162515.8,286046996.9,N
1582162535.7,286046993.4,N
1582162555.5,286046999.6,N
1582162575.3,286047002.9,N
1582162595.2,286047008.9,N
1582162615.0,286047005.1,N
1582162615.9,286047005.1,N
1582162635.8,286046998.2,N
1582162655.6,286047003.9,N
1582162675.4,286046999.7,N
1582162695.3,286047005.7,N
1582162715.1,286047005.0,N
1582162735.8,286047011.6,Y
1582162755.7,286047012.4,P
1582162775.5,286047013.3,P
1582162795.4,286047006.9,N
1582162815.2,286047004.5,N
1582162835.0,286047011.9,N
1582162835.9,286047011.9,Y
1582162855.8,286046997.9,P
1582162875.6,286046991.7,N
1582162895.5,286046995.5,N
1582162915.3,286046991.7,N
1582162935.1,286046994.1,N
1582162955.9,286047001.5,N
1582162975.7,286047005.1,N
1582162995.5,286047008.9,N
1582163015.4,286047004.1,N
1582163035.2,286047007.1,N
1582163055.1,286047012.0,N
1582163056.0,286047012.0,N
1582163075.8,286047002.2,N
1582163095.6,286046995.4,N
1582163115.5,286046994.7,N
1582163135.3,286047003.0,N
1582163155.1,286046998.5,N
1582163175.9,286046999.9,N
1582163195.7,286047003.4,N
1582163215.6,286047012.3,N
1582163235.4,286047013.2,N
1582163255.2,286047018.1,N
1582163275.1,286047011.6,N
1582163276.0,286047011.6,N
1582163295.8,286047010.3,N
1582163315.6,286047009.4,N
1582163335.5,286047014.5,N
1582163355.3,286047011.3,N
1582163375.2,286047007.3,N
1582163395.9,286047004.0,N
1582163415.7,286047009.4,N
1582163435.6,286047009.4,N
1582163455.4,286047004.7,N
1582163475.2,286047010.7,N
1582163495.1,286047008.4,N
1582163496.0,286047008.4,N
1582163515.8,286047005.4,N
1582163535.7,286047003.8,N
1582163555.5,286047001.5,N
1582163575.3,286047007.1,N
1582163595.2,286047006.8,N
1582163615.0,286047003.8,N
1582163615.9,286047003.8,N
1582163635.8,286047005.4,N
1582163655.6,286047003.3,N
1582163675.4,286047006.1,N
1582163695.3,286047009.4,N
1582163715.1,286047013.7,Y
1582163735.9,286047008.5,P
1582163755.7,286047001.5,P
1582163775.6,286047000.4,N
1582163795.4,286046996.9,N
1582163815.3,286046998.0,N
1582163835.1,286046999.4,N
1582163855.9,286046996.5,N
1582163875.7,286047001.2,N
1582163895.5,286046989.5,N
1582163915.4,286046991.4,N
1582163935.2,286046989.2,N
1582163955.1,286046987.2,N
1582163956.0,286046987.2,N
1582163975.8,286046987.6,N
1582163995.6,286046992.8,N
